Location: Peterborough
(44.3091°N, 78.3197°W)
Time: 11:52:20
(UTC-05:00)

A-11 Canister half - Visible Passes

Search period start: 11 December 2023 00:00
Search period end: 21 December 2023 00:00
Orbit: 1525 x 1683 km, 47.3° (Epoch: 09 December)

Date Brightness Start Highest point End Pass type
(mag) Time Alt. Az. Time Alt. Az. Time Alt. Az.
11 Dec 9.6 16:50:51 10° SW 17:00:29 52° SE 17:10:11 10° ENE visible
11 Dec 9.1 18:55:08 10° WSW 19:05:22 85° NNW 19:09:18 44° ENE visible
11 Dec 9.8 21:00:55 10° W 21:07:35 47° WNW 21:07:35 47° WNW visible
12 Dec 9.1 18:33:21 10° WSW 18:43:34 86° NNW 18:48:46 35° ENE visible
12 Dec 9.4 20:39:06 10° W 20:47:03 59° WNW 20:47:03 59° WNW visible
12 Dec 11.2 22:44:37 10° WNW 22:45:21 13° WNW 22:45:21 13° WNW visible
13 Dec 9.1 18:11:34 10° WSW 18:21:47 88° NNW 18:28:13 27° ENE visible
13 Dec 9.1 20:17:18 10° W 20:26:31 71° NW 20:26:31 71° NW visible
13 Dec 11.0 22:22:49 10° WNW 22:24:48 18° WNW 22:24:48 18° WNW visible
14 Dec 9.2 17:49:47 10° WSW 17:59:59 89° NNW 18:07:40 21° ENE visible
14 Dec 9.0 19:55:30 10° W 20:05:44 76° N 20:05:58 76° NNE visible
14 Dec 10.7 22:01:02 10° WNW 22:04:15 24° WNW 22:04:15 24° WNW visible
15 Dec 9.2 17:28:01 10° WSW 17:38:12 89° SSE 17:47:09 15° ENE visible
15 Dec 9.0 19:33:42 10° W 19:43:55 76° N 19:45:26 66° ENE visible
15 Dec 10.4 21:39:14 10° WNW 21:43:44 31° WNW 21:43:44 31° WNW visible
16 Dec 9.3 17:06:16 10° WSW 17:16:25 88° SSE 17:26:38 10° ENE visible
16 Dec 9.1 19:11:53 10° W 19:22:07 76° N 19:24:55 53° ENE visible
16 Dec 10.0 21:17:27 10° WNW 21:23:13 40° WNW 21:23:13 40° WNW visible
17 Dec 9.1 18:50:05 10° W 19:00:18 75° N 19:04:25 42° ENE visible
17 Dec 9.6 20:55:40 10° WNW 21:02:43 51° WNW 21:02:43 51° WNW visible
18 Dec 9.1 18:28:17 10° W 18:38:29 75° N 18:43:57 33° E visible
18 Dec 9.3 20:33:52 10° WNW 20:42:15 65° W 20:42:15 65° W visible
18 Dec 11.2 22:39:31 10° WNW 22:40:33 13° WNW 22:40:33 13° WNW visible
19 Dec 9.2 18:06:29 10° W 18:16:41 75° N 18:23:31 25° E visible
19 Dec 9.0 20:12:05 10° WNW 20:21:49 81° WSW 20:21:49 81° WSW visible
19 Dec 10.9 22:17:41 10° WNW 22:20:07 18° W 22:20:07 18° W visible
20 Dec 9.2 17:44:41 10° W 17:54:52 75° N 18:03:07 18° E visible
20 Dec 8.9 19:50:18 10° WNW 20:00:32 86° SSW 20:01:25 78° SE visible
20 Dec 10.6 21:55:51 10° WNW 21:59:44 24° W 21:59:44 24° W visible
